Wind_Speed
22 22 22 23 23 23 23 24 25 24 23 25 24 25 27 29 28 10 10 10 12 9 10 8 13 15 17 15 17 14 7 9 13 11 9 6 6 11 13 4 9 6 12 20 22
24 24 24 24 24 24 24 24 24 25 25 25 26 26 28 28 21 18 18 11 9 11 12 13 11 13 11 17 11 8 10 20 7 6 12 18 2 12 17 19 9 10 18 23 23
24 25 25 26 26 26 26 26 24 24 24 25 26 26 27 26 11 6 14 13 12 13 14 14 14 11 14 18 15 13 8 8 6 8 10 18 10 16 25 15 12 16 18 19 21
24 25 27 27 26 27 27 28 25 25 23 24 25 26 23 8 7 6 7 10 11 15 17 15 15 15 16 20 14 7 13 10 11 3 5 7 4 6 2 9 11 21 21 20 19
24 24 26 27 28 28 28 28 27 26 25 23 23 23 14 9 17 2 7 9 13 15 17 15 15 17 15 18 19 11 13 11 10 14 3 4 11 4 4 9 10 21 20 20 18
24 25 26 28 28 29 28 28 27 26 26 24 22 18 7 16 2 4 11 16 16 17 18 17 14 16 14 17 17 20 18 15 17 17 11 8 10 8 10 8 13 17 18 18 18
25 27 28 29 30 29 30 29 28 26 25 23 19 9 11 18 10 5 13 15 19 19 17 19 17 17 17 20 18 16 18 16 20 17 11 2 12 0 8 9 13 15 15 17 16
27 28 28 30 30 31 32 29 28 25 24 20 16 7 9 19 16 18 16 16 18 18 18 17 17 13 17 18 21 20 19 16 21 15 7 6 6 3 15 13 14 17 15 15 16
29 30 30 31 30 31 34 31 26 25 21 13 8 10 18 2 18 20 19 21 20 21 20 16 15 14 16 17 16 16 17 20 20 11 8 10 5 10 17 16 14 15 16 16 15
30 31 31 31 31 34 35 29 23 25 9 8 16 11 20 19 22 21 22 23 19 17 16 17 14 14 15 14 15 19 19 21 16 9 11 15 12 4 13 13 16 15 17 16 17
30 32 33 32 31 32 32 17 6 6 10 15 14 17 20 23 20 24 25 21 21 18 18 18 15 16 21 20 21 18 20 21 18 16 15 11 12 12 14 13 13 15 18 17 18
30 33 33 34 32 25 15 8 13 10 13 18 22 27 34 29 15 17 19 21 21 21 20 19 20 21 21 21 20 18 19 17 19 15 16 16 19 11 18 15 9 12 16 21 19
30 33 33 35 27 13 14 19 13 15 11 24 23 22 25 28 18 19 24 21 18 23 22 22 21 22 23 17 18 18 15 17 16 17 16 16 19 11 17 17 17 11 8 17 18
29 31 31 36 14 20 18 9 13 16 9 22 24 32 28 29 29 24 25 24 23 25 24 22 23 23 21 21 16 20 15 19 18 15 12 14 14 15 17 14 15 7 8 7 17
30 31 30 29 17 10 17 17 16 13 7 13 22 37 31 32 29 26 33 25 26 27 22 24 22 20 20 19 18 17 15 18 16 15 16 16 10 14 5 16 9 9 12 2 3
32 32 35 15 15 19 18 17 14 7 14 12 24 14 27 28 29 30 24 28 23 26 24 26 23 20 19 17 20 13 16 18 14 15 13 16 15 14 15 7 10 10 6 9 6
35 34 35 17 10 15 14 10 6 10 11 22 23 8 16 19 26 28 29 27 24 23 23 26 27 23 21 14 14 16 17 12 13 12 13 19 17 12 9 14 13 12 10 6 5
40 35 20 14 9 12 13 8 13 11 21 24 25 16 21 21 22 24 26 26 28 28 20 21 22 25 24 18 14 19 18 13 14 14 15 15 13 12 19 12 17 7 6 6 4
40 20 16 15 10 7 7 11 13 15 23 17 25 17 13 15 12 23 27 26 29 24 23 20 26 22 26 22 18 19 16 16 18 19 14 13 6 7 9 6 7 8 14 11 11
23 17 16 9 4 7 7 14 20 20 24 18 17 12 14 15 19 17 17 23 27 27 25 23 23 26 23 23 24 21 15 14 12 16 16 15 13 6 15 10 17 15 13 11 10
10 6 7 4 5 5 9 14 17 21 21 13 15 18 20 22 14 11 11 18 20 26 25 25 19 22 22 19 20 15 17 17 18 12 12 13 3 9 11 10 13 14 13 12 12
9 5 7 5 6 7 11 18 17 21 18 13 14 16 20 20 14 10 21 14 29 18 25 26 18 15 25 15 24 17 17 20 12 13 13 13 7 10 3 5 15 14 14 13 13
5 9 7 7 7 8 13 17 16 15 13 15 16 19 17 17 17 17 19 3 18 18 11 10 13 13 18 18 13 17 21 17 17 13 18 13 3 8 7 7 9 14 13 12 14
5 4 5 6 11 13 15 14 9 11 13 14 17 19 18 17 16 17 19 18 2 14 11 7 9 9 13 17 13 13 21 20 16 9 14 16 13 6 4 9 1 12 12 12 11
5 4 12 6 6 12 12 10 12 11 13 8 12 14 16 17 17 19 20 18 15 3 7 5 9 13 16 21 20 17 14 20 18 19 16 7 9 17 15 16 8 8 10 11 11
5 10 12 13 14 15 13 11 15 12 8 12 12 15 15 15 17 19 19 18 13 5 15 18 10 11 17 16 18 16 17 18 20 22 20 16 14 21 15 10 8 1 8 11 10
17 15 8 11 14 12 4 7 18 13 11 7 14 14 20 15 17 16 19 20 17 4 3 9 11 8 15 18 18 14 18 22 11 8 11 16 15 13 14 10 12 5 5 7 7
Wind_Direction
3 0 356 353 351 351 350 347 345 346 344 341 340 339 334 329 324 310 257 266 201 201 183 185 227 251 266 267 263 265 293 245 28 62 73 224 169 98 71 114 90 56 106 136 145
2 358 355 350 348 346 343 344 342 339 339 337 337 336 331 329 318 272 253 236 216 202 186 199 218 236 256 263 255 223 293 277 70 9 165 32 58 76 120 305 128 101 108 132 153
359 356 353 348 346 343 339 337 335 334 334 332 332 332 328 326 283 232 196 216 229 217 213 215 256 278 269 270 270 267 257 351 36 48 340 163 199 139 148 209 199 148 141 153 161
356 353 350 347 342 338 337 334 328 327 327 328 327 327 327 310 303 102 178 216 222 201 226 228 252 264 258 274 273 270 285 324 296 110 278 288 339 194 107 142 132 145 154 165 171
352 350 347 344 340 336 333 328 325 322 321 322 323 325 335 266 262 163 180 170 183 199 226 232 249 261 266 282 313 296 270 298 312 302 177 286 287 267 278 141 130 139 157 173 178
349 347 345 341 338 332 327 324 320 318 315 316 316 319 277 273 225 167 163 167 188 203 233 239 253 277 290 299 290 297 306 310 293 277 258 227 276 220 221 169 137 146 168 178 185
348 345 342 340 336 329 325 319 316 313 309 309 304 302 267 255 285 173 194 199 200 213 238 235 253 273 282 280 279 282 288 277 269 258 242 184 264 315 311 168 154 164 176 182 186
346 343 341 339 335 329 322 314 310 306 301 301 293 253 256 260 249 214 212 212 216 226 244 261 274 276 268 278 285 285 280 272 269 248 239 220 184 157 229 216 180 172 179 191 190
345 343 340 336 332 329 321 313 303 295 290 285 273 216 261 225 218 235 211 218 218 228 244 247 259 264 266 256 261 253 260 263 264 179 228 233 233 207 229 215 176 184 181 187 188
343 341 338 337 332 329 319 313 296 279 277 237 256 275 260 242 228 223 218 222 228 222 235 241 238 245 246 247 251 251 244 242 248 172 203 252 254 274 301 204 206 196 180 183 185
342 338 338 335 331 327 322 332 240 203 222 244 222 216 272 275 227 206 207 213 231 229 229 235 237 241 242 244 240 260 274 288 296 306 320 312 288 286 281 271 274 173 177 182 189
340 338 338 335 329 318 301 286 342 322 301 273 262 267 272 266 210 219 216 202 214 226 230 240 239 242 254 258 265 259 266 269 274 288 290 287 282 284 277 284 292 265 182 180 185
339 339 338 333 327 306 294 294 317 308 284 279 265 252 252 251 229 236 208 208 216 221 231 240 243 240 243 248 260 260 267 282 279 280 283 288 277 264 262 268 245 242 230 184 176
336 337 338 336 311 323 293 359 314 317 283 275 249 234 239 245 236 234 245 205 219 228 224 241 246 248 259 241 237 253 249 254 260 268 268 270 275 260 252 258 240 248 117 270 166
333 334 330 332 292 296 316 323 316 290 277 281 244 226 213 224 234 219 228 240 224 228 239 249 248 250 251 242 253 264 266 271 284 278 273 267 262 273 186 243 206 128 118 79 97
329 328 325 335 269 272 292 308 297 241 248 260 272 207 207 215 224 232 220 220 241 230 245 246 247 257 261 247 253 243 267 269 262 265 264 260 257 266 265 120 354 52 79 128 142
325 322 311 282 262 328 322 297 235 239 281 251 271 234 207 232 225 223 231 215 216 232 232 240 250 253 255 264 237 240 239 245 246 244 249 246 241 241 264 153 212 164 120 126 100
323 320 299 246 271 290 281 255 249 264 244 278 293 275 236 228 231 232 221 235 231 218 237 233 240 238 249 227 246 250 232 237 239 244 247 232 243 235 233 171 156 233 146 106 134
325 317 272 250 223 247 258 234 240 253 275 326 315 280 275 298 279 225 226 230 239 217 239 242 250 251 230 225 214 244 255 244 258 274 278 280 261 350 346 153 196 144 105 102 97
322 301 254 129 198 220 239 256 275 270 278 306 292 309 292 275 268 265 274 232 232 236 227 233 251 253 236 218 221 222 245 236 234 247 271 282 283 347 187 199 109 99 104 103 117
294 276 128 182 196 229 244 254 259 259 271 302 294 296 305 312 340 300 304 259 250 232 234 244 232 246 255 238 223 204 221 249 264 244 242 245 61 92 61 74 101 117 124 137 133
286 275 131 167 230 230 250 259 259 286 299 288 256 274 289 308 301 308 272 27 315 318 220 230 225 228 252 236 219 222 224 216 244 257 268 283 327 34 161 146 127 128 145 144 146
285 292 187 219 261 245 276 240 265 276 286 284 285 277 275 286 292 296 301 326 259 312 20 333 239 222 242 247 235 208 240 235 218 233 264 281 143 172 113 73 116 143 150 147 147
280 280 172 211 262 280 288 317 288 255 249 273 278 296 298 288 279 284 284 306 327 295 339 306 288 286 244 237 213 225 222 233 244 240 232 245 244 45 68 126 78 149 148 148 140
248 280 353 287 312 311 276 297 308 286 300 267 268 266 260 277 282 275 282 285 272 185 289 326 298 291 283 254 270 280 233 261 243 253 250 122 109 94 72 343 348 146 157 149 145
291 335 336 301 292 283 281 275 269 283 243 283 315 294 275 255 249 271 274 280 295 338 310 331 251 264 278 273 259 260 253 248 256 241 244 222 135 146 154 127 83 75 156 154 158
335 338 303 288 290 284 323 301 294 305 294 258 280 310 284 261 275 250 252 272 282 137 52 3 316 256 251 250 264 260 242 261 254 319 264 221 106 69 80 60 57 15 56 111 153
Height
816 813 810 807 803 800 797 794 791 787 785 781 778 775 770 766 761 758 754 748 749 750 752 754 754 748 742 738 731 720 753 760 733 731 749 713 737 719 728 740 731 729 729 741 754
817 813 810 807 803 799 796 793 790 786 782 780 777 773 769 765 759 753 747 746 748 749 751 749 747 742 741 731 722 731 751 741 712 712 728 718 716 720 771 762 740 738 738 746 753
817 813 810 806 802 799 795 791 788 786 782 779 776 773 769 765 758 738 741 744 745 747 748 745 740 737 742 725 719 721 745 715 708 708 705 720 715 713 741 757 733 739 743 746 751
817 814 810 806 802 798 794 790 786 783 781 778 775 771 768 767 768 740 741 743 744 746 747 742 739 743 743 737 711 732 715 710 706 702 708 712 702 710 713 720 710 721 732 741 747
817 814 810 806 801 797 793 789 785 781 778 776 773 770 766 759 745 741 741 742 745 747 745 739 740 738 745 729 721 725 716 706 701 700 701 704 712 709 710 702 708 718 729 737 742
817 813 808 804 801 797 792 787 783 779 775 773 771 769 768 765 741 740 741 741 745 746 742 738 735 729 735 735 735 720 716 714 707 703 697 708 708 702 704 698 708 717 726 732 737
817 813 808 804 799 794 789 784 780 777 774 771 769 768 763 750 739 739 742 742 743 743 738 734 732 733 731 738 717 719 731 718 708 699 700 697 718 715 702 698 708 716 723 727 731
816 811 806 801 797 792 785 779 776 773 770 768 767 769 754 737 736 735 739 740 741 738 736 732 730 730 734 726 729 737 730 745 705 692 694 704 739 715 698 701 707 711 718 723 727
815 810 805 799 794 788 782 775 769 766 765 765 766 763 746 730 730 731 733 734 736 735 733 732 730 737 734 747 754 741 758 739 719 691 701 707 723 703 690 695 702 702 708 715 722
815 809 804 798 792 786 777 769 761 757 759 763 761 761 736 727 721 724 726 729 728 728 731 732 736 747 744 750 775 754 743 727 724 706 703 712 710 694 697 691 692 693 701 707 713
814 810 802 796 791 785 777 765 757 756 755 744 732 731 718 711 714 713 719 723 724 726 746 732 750 757 743 731 728 729 732 730 711 695 704 709 710 702 689 683 683 686 689 700 705
814 809 800 794 789 784 780 770 759 762 755 738 730 725 718 709 713 712 713 725 730 744 731 741 749 730 721 718 721 723 731 732 714 703 708 712 714 695 688 683 680 679 682 685 693
813 807 800 793 785 782 776 769 765 763 758 736 723 718 714 710 711 707 704 711 726 737 734 741 729 713 718 723 730 725 734 731 730 710 702 711 720 707 689 679 673 669 669 674 681
813 807 801 794 786 780 772 768 767 763 767 734 712 703 705 702 711 697 695 703 717 728 725 726 708 714 715 720 717 737 713 717 721 728 748 707 750 709 691 687 675 670 671 674 677
810 806 802 801 793 783 774 772 768 763 790 707 685 671 682 700 699 695 692 696 715 716 718 724 714 714 718 716 708 725 709 715 716 725 726 725 737 715 692 699 681 675 674 678 678
808 804 799 796 791 781 776 771 769 780 777 716 683 677 688 687 689 687 688 687 688 707 705 707 690 696 699 696 698 700 715 717 718 724 752 728 730 722 700 701 696 681 677 681 678
804 799 795 795 783 778 777 771 780 781 721 715 701 682 687 695 691 690 697 699 713 731 727 711 706 691 687 704 695 706 726 759 764 756 755 707 719 709 679 678 680 682 677 677 678
799 791 784 782 780 780 776 776 788 747 736 702 695 687 695 687 691 687 696 704 686 699 714 728 737 702 687 699 716 711 717 745 773 758 734 696 723 698 662 659 670 667 668 674 678
795 785 778 773 777 779 777 780 765 747 724 722 705 704 699 685 685 687 690 694 684 684 713 718 717 680 679 680 692 713 721 700 727 717 730 710 689 673 665 665 664 667 674 678 682
797 784 772 770 775 775 776 775 752 728 721 719 729 709 717 702 698 692 691 675 681 671 671 693 720 683 673 669 676 693 689 726 718 758 759 723 709 714 685 676 675 681 684 686 688
797 775 767 769 772 770 773 757 743 725 722 727 727 724 713 713 703 703 697 679 666 667 665 675 694 697 675 683 691 695 705 703 701 709 737 741 726 678 690 685 685 686 687 688 692
792 776 766 767 772 760 762 747 741 729 715 717 718 723 722 713 712 705 703 697 671 657 673 665 681 704 691 664 662 672 688 695 720 730 711 714 719 679 679 677 674 685 688 687 690
792 770 761 764 768 752 737 734 728 728 726 725 726 718 712 719 726 708 697 684 673 670 683 673 681 707 702 684 668 683 679 679 686 698 718 727 734 683 681 682 678 687 689 688 690
794 768 755 758 753 755 749 738 736 721 728 727 727 720 719 719 707 714 705 682 673 672 681 672 682 694 708 696 686 691 682 676 683 709 708 705 698 703 697 696 691 689 690 691 694
790 765 758 769 750 745 740 740 741 741 722 721 727 724 727 732 721 716 701 689 679 684 674 677 701 689 680 674 673 679 689 681 689 686 703 703 715 733 740 715 702 694 698 698 698
791 781 770 767 756 751 748 743 740 731 731 735 732 722 717 723 723 722 704 696 694 692 695 694 703 692 695 675 674 684 680 682 685 675 677 681 699 708 709 700 704 704 701 700 701
792 790 786 771 756 747 745 758 746 734 726 724 727 728 721 710 698 692 691 685 683 693 713 730 714 704 710 685 683 699 682 673 673 665 665 681 704 703 711 716 711 716 707 700 701